Flag for Canada Weather past 2 weeks in Dawson Creek, British Columbia, Canada

Now
12 °F

Overcast.


Feels Like: 12 °F
Forecast: 3 / 15 °F
Wind: 2 mph from North

Location: Dawson Creek Airport

Current Time: Dec 18, 2014 at 6:54:07 AM

Latest Report: Dec 18, 2014 at 6:00 AM


Visibility: 9 mi

Pressure: 29.91 "Hg

Humidity: 100%

Dew point: 12 °F

Location of Dawson CreekLocation

Historic Weather in Dawson Creek — Graph

°F

Dawson Creek temperature yesterday

Maximum temperature yesterday: 16 °F (at 7:00 PM)
Minimum temperature yesterday: -6 °F (at 12:00 AM)
Average temperature yesterday: 6 °F

Past Weeks' High & Low Weather Summary

 TemperatureHumidityPressure
High46 °F (Dec 10, 12:51 AM)100% (Dec 4, 2:00 PM)30.42 "Hg (Dec 4, 2:00 PM)
Low-11 °F (Dec 5, 6:00 AM)50% (Dec 10, 2:00 AM)29.25 "Hg (Dec 10, 4:00 PM)
Average9 °F87%29.92 "Hg
* Reported Dec 3 5:00 AM — Dec 18 5:00 AM, Dawson Creek, Weather by CustomWeather, © 2014

Note: Actual official high and low records may vary slightly from our data, if they occured in-between our weather recording intervals... More about our weather records

Advertising

Dawson Creek weather history for previous 24 hours

 ConditionsComfort  
Time TempWeatherWind HumidityBarometerVisibility
5:00 AM
Dec 18
9 °FMostly cloudy.No wind92%29.93 "Hg9 mi
4:00 AM12 °FOvercast.2 mph100%29.93 "Hg9 mi
3:00 AM12 °FMostly cloudy.3 mph92%29.92 "Hg9 mi
2:00 AM14 °FPassing clouds.No wind92%29.92 "Hg9 mi
1:00 AM14 °FOvercast.2 mph92%29.92 "Hg9 mi
12:00 AM14 °FOvercast.5 mph85%29.92 "Hg9 mi
11:00 PM
Dec 17
12 °FMostly cloudy.5 mph92%29.92 "Hg9 mi
10:00 PM14 °FOvercast.2 mph92%29.91 "Hg9 mi
9:00 PM10 °FPassing clouds.No wind92%29.91 "Hg9 mi
8:00 PM16 °FPassing clouds.3 mph86%29.91 "Hg9 mi
7:00 PM16 °FMostly cloudy.5 mph93%29.91 "Hg9 mi
6:00 PM14 °FOvercast.3 mph92%29.91 "Hg9 mi
5:00 PM14 °FMostly cloudy.5 mph92%29.91 "Hg9 mi
4:00 PM14 °FOvercast.3 mph92%29.91 "Hg9 mi
3:00 PM14 °FOvercast.5 mph92%29.90 "Hg9 mi
2:00 PM9 °FSunny.5 mph92%29.91 "Hg9 mi
1:00 PM7 °FPartly sunny.3 mph92%29.91 "Hg9 mi
12:00 PM5 °FSunny.2 mph92%29.93 "Hg9 mi
11:00 AM1 °FSunny.No wind92%29.95 "Hg9 mi
10:00 AM1 °FSunny.No wind92%29.95 "Hg9 mi
9:00 AM3 °FClear.3 mph85%29.94 "Hg9 mi
8:00 AM3 °FClear.3 mph92%29.93 "Hg9 mi
7:00 AM5 °FPassing clouds.3 mph85%29.93 "Hg9 mi
6:00 AM3 °FOvercast.2 mph92%29.94 "Hg9 mi
Weather by CustomWeather, © 2014

See weather overviewHow to use our weather pages